| time (UTC) | temp C | wind direction | speed KPH | gust KPH | rain 1hr cm | rain 24hr cm | rain mn cm | humidity % | barometer mb |
| 20260502233604 | 18 | 272 | 3.2 | 22.5 | 0.00 | 0.00 | 0.00 | 33 | 1009.7 |
| 20260502233104 | 18 | 196 | 12.9 | 19.3 | 0.00 | 0.00 | 0.00 | 30 | 1010.3 |
| 20260502232603 | 18 | 246 | 4.8 | 14.5 | 0.00 | 0.00 | 0.00 | 31 | 1009.6 |
| 20260502232104 | 18 | 193 | 4.8 | 19.3 | 0.00 | 0.00 | 0.00 | 30 | 1009.9 |
| 20260502231604 | 18 | 283 | 11.3 | 19.3 | 0.00 | 0.00 | 0.00 | 31 | 1009.8 |
| 20260502231104 | 18 | 302 | 4.8 | 22.5 | 0.00 | 0.00 | 0.00 | 30 | 1009.8 |
| 20260502230603 | 18 | 335 | 4.8 | 14.5 | 0.00 | 0.00 | 0.00 | 31 | 1009.9 |
| 20260502230104 | 18 | 263 | 3.2 | 8.0 | 0.00 | 0.00 | 0.00 | 30 | 1010.1 |
| 20260502225604 | 18 | 330 | 1.6 | 9.7 | 0.00 | 0.00 | 0.00 | 31 | 1010.2 |
| 20260502225104 | 18 | 268 | 3.2 | 11.3 | 0.00 | 0.00 | 0.00 | 29 | 1010.2 |
| 20260502224604 | 18 | 212 | 6.4 | 11.3 | 0.00 | 0.00 | 0.00 | 30 | 1010.2 |
| 20260502224103 | 18 | 264 | 3.2 | 8.0 | 0.00 | 0.00 | 0.00 | 30 | 1010.4 |
| 20260502223604 | 18 | 335 | 1.6 | 9.7 | 0.00 | 0.00 | 0.00 | 29 | 1010.6 |
| 20260502223104 | 18 | 215 | 4.8 | 11.3 | 0.00 | 0.00 | 0.00 | 29 | 1010.7 |
| 20260502222604 | 18 | 298 | 4.8 | 11.3 | 0.00 | 0.00 | 0.00 | 31 | 1010.3 |
| 20260502222104 | 18 | 315 | 4.8 | 14.5 | 0.00 | 0.00 | 0.00 | 32 | 1010.4 |
| 20260502221604 | 18 | 319 | 4.8 | 14.5 | 0.00 | 0.00 | 0.00 | 31 | 1010.5 |
| 20260502221104 | 18 | 262 | 6.4 | 14.5 | 0.00 | 0.00 | 0.00 | 30 | 1010.5 |
| 20260502220604 | 18 | 314 | 1.6 | 11.3 | 0.00 | 0.00 | 0.00 | 31 | 1010.6 |
| 20260502220104 | 18 | 293 | 4.8 | 16.1 | 0.00 | 0.00 | 0.00 | 29 | 1010.6 |
| 20260502215104 | 18 | 300 | 4.8 | 16.1 | 0.00 | 0.00 | 0.00 | 29 | 1010.9 |
| 20260502214604 | 18 | 296 | 9.7 | 22.5 | 0.00 | 0.00 | 0.00 | 29 | 1011.0 |
| 20260502214104 | 18 | 305 | 9.7 | 22.5 | 0.00 | 0.00 | 0.00 | 29 | 1011.0 |
| 20260502212604 | 18 | 278 | 4.8 | 16.1 | 0.00 | 0.00 | 0.00 | 29 | 1011.4 |
| 20260502212104 | 18 | 335 | 3.2 | 19.3 | 0.00 | 0.00 | 0.00 | 29 | 1011.4 |
| 20260502211604 | 19 | 210 | 9.7 | 14.5 | 0.00 | 0.00 | 0.00 | 28 | 1011.3 |
| 20260502211103 | 19 | 213 | 4.8 | 22.5 | 0.00 | 0.00 | 0.00 | 28 | 1011.5 |
| 20260502210604 | 18 | 259 | 4.8 | 24.1 | 0.00 | 0.00 | 0.00 | 27 | 1011.6 |
| 20260502210104 | 18 | 242 | 11.3 | 24.1 | 0.00 | 0.00 | 0.00 | 29 | 1012.0 |
| 20260502205604 | 18 | 291 | 9.7 | 19.3 | 0.00 | 0.00 | 0.00 | 29 | 1012.2 |
| 20260502205105 | 18 | 282 | 6.4 | 19.3 | 0.00 | 0.00 | 0.00 | 30 | 1011.7 |
| 20260502204604 | 18 | 204 | 4.8 | 11.3 | 0.00 | 0.00 | 0.00 | 30 | 1011.8 |
| 20260502204104 | 18 | 308 | 6.4 | 16.1 | 0.00 | 0.00 | 0.00 | 29 | 1011.9 |
| 20260502203604 | 18 | 258 | 8.0 | 22.5 | 0.00 | 0.00 | 0.00 | 29 | 1012.1 |
| 20260502203104 | 18 | 221 | 11.3 | 22.5 | 0.00 | 0.00 | 0.00 | 28 | 1012.2 |
| 20260502202604 | 18 | 209 | 3.2 | 24.1 | 0.00 | 0.00 | 0.00 | 28 | 1012.5 |
| 20260502202104 | 17 | 280 | 9.7 | 19.3 | 0.00 | 0.00 | 0.00 | 30 | 1012.8 |
| 20260502201604 | 18 | 239 | 9.7 | 24.1 | 0.00 | 0.00 | 0.00 | 29 | 1012.7 |
| 20260502201104 | 18 | 280 | 4.8 | 9.7 | 0.00 | 0.00 | 0.00 | 30 | 1012.9 |
| 20260502200604 | 18 | 293 | 6.4 | 14.5 | 0.00 | 0.00 | 0.00 | 28 | 1012.9 |
| 20260502200105 | 18 | 225 | 4.8 | 9.7 | 0.00 | 0.00 | 0.00 | 29 | 1013.1 |
| 20260502195604 | 17 | 271 | 4.8 | 19.3 | 0.00 | 0.00 | 0.00 | 28 | 1013.6 |
| 20260502195104 | 17 | 236 | 4.8 | 16.1 | 0.00 | 0.00 | 0.00 | 29 | 1013.1 |
| 20260502194604 | 17 | 254 | 9.7 | 22.5 | 0.00 | 0.00 | 0.00 | 30 | 1013.3 |
| 20260502194104 | 17 | 197 | 9.7 | 16.1 | 0.00 | 0.00 | 0.00 | 29 | 1013.3 |
| 20260502193104 | 17 | 208 | 4.8 | 19.3 | 0.00 | 0.00 | 0.00 | 29 | 1013.5 |
| 20260502192603 | 17 | 317 | 8.0 | 14.5 | 0.00 | 0.00 | 0.00 | 30 | 1013.9 |
| 20260502192105 | 16 | 208 | 4.8 | 22.5 | 0.00 | 0.00 | 0.00 | 30 | 1014.1 |
| 20260502191604 | 17 | 282 | 4.8 | 11.3 | 0.00 | 0.00 | 0.00 | 29 | 1014.1 |
| 20260502190603 | 16 | 225 | 8.0 | 19.3 | 0.00 | 0.00 | 0.00 | 31 | 1014.2 |
| 20260502190104 | 16 | 269 | 8.0 | 19.3 | 0.00 | 0.00 | 0.00 | 28 | 1014.5 |
| 20260502185604 | 16 | 286 | 4.8 | 11.3 | 0.00 | 0.00 | 0.00 | 30 | 1014.8 |
| 20260502185104 | 16 | 202 | 8.0 | 16.1 | 0.00 | 0.00 | 0.00 | 31 | 1014.5 |
| 20260502184603 | 16 | 302 | 9.7 | 22.5 | 0.00 | 0.00 | 0.00 | 31 | 1014.9 |
| 20260502184105 | 16 | 88 | 9.7 | 22.5 | 0.00 | 0.00 | 0.00 | 30 | 1015.0 |
| 20260502183604 | 16 | 203 | 11.3 | 19.3 | 0.00 | 0.00 | 0.00 | 30 | 1014.7 |
| 20260502182104 | 15 | 237 | 9.7 | 19.3 | 0.00 | 0.00 | 0.00 | 30 | 1015.1 |
| 20260502181604 | 16 | 290 | 6.4 | 11.3 | 0.00 | 0.00 | 0.00 | 31 | 1015.1 |
| 20260502181104 | 15 | 269 | 4.8 | 25.7 | 0.00 | 0.00 | 0.00 | 30 | 1015.4 |
| 20260502180604 | 15 | 308 | 6.4 | 25.7 | 0.00 | 0.00 | 0.00 | 31 | 1015.2 |
| 20260502164103 | 14 | 322 | 9.7 | 19.3 | 0.00 | 0.00 | 0.00 | 31 | 1016.9 |
| 20260502163603 | 14 | 297 | 4.8 | 16.1 | 0.00 | 0.00 | 0.00 | 32 | 1017.0 |
| 20260502163104 | 13 | 283 | 8.0 | 19.3 | 0.00 | 0.00 | 0.00 | 32 | 1017.1 |
| 20260502162603 | 13 | 185 | 11.3 | 19.3 | 0.00 | 0.00 | 0.00 | 34 | 1016.9 |
| 20260502162103 | 14 | 210 | 6.4 | 11.3 | 0.00 | 0.00 | 0.00 | 31 | 1017.1 |
| 20260502161604 | 13 | 335 | 4.8 | 19.3 | 0.00 | 0.00 | 0.00 | 32 | 1017.3 |
| 20260502161103 | 13 | 294 | 4.8 | 14.5 | 0.00 | 0.00 | 0.00 | 34 | 1017.4 |
| 20260502160604 | 13 | 223 | 3.2 | 14.5 | 0.00 | 0.00 | 0.00 | 33 | 1017.5 |
| 20260502160104 | 13 | 340 | 3.2 | 11.3 | 0.00 | 0.00 | 0.00 | 35 | 1017.5 |
| 20260502152103 | 12 | 249 | 8.0 | 16.1 | 0.00 | 0.00 | 0.00 | 36 | 1017.8 |
| 20260502151604 | 12 | 272 | 1.6 | 14.5 | 0.00 | 0.00 | 0.00 | 38 | 1017.9 |
| 20260502151104 | 12 | 300 | 8.0 | 14.5 | 0.00 | 0.00 | 0.00 | 37 | 1018.1 |
| 20260502150604 | 12 | 335 | 4.8 | 14.5 | 0.00 | 0.00 | 0.00 | 39 | 1018.2 |
| 20260502150104 | 11 | 313 | 8.0 | 14.5 | 0.00 | 0.00 | 0.00 | 40 | 1018.3 |
| 20260502140104 | 10 | 266 | 8.0 | 11.3 | 0.00 | 0.00 | 0.00 | 45 | 1018.7 |
| 20260502130604 | 7 | 331 | 3.2 | 11.3 | 0.00 | 0.00 | 0.00 | 52 | 1019.3 |
| 20260502130104 | 7 | 330 | 3.2 | 8.0 | 0.00 | 0.00 | 0.00 | 53 | 1019.4 |
| 20260502123604 | 5 | 330 | 1.6 | 8.0 | 0.00 | 0.00 | 0.00 | 59 | 1019.3 |
| 20260502123104 | 5 | 332 | 1.6 | 4.8 | 0.00 | 0.00 | 0.00 | 60 | 1019.4 |
| 20260502122604 | 5 | 335 | 1.6 | 4.8 | 0.00 | 0.00 | 0.00 | 61 | 1019.5 |
| 20260502122104 | 4 | 358 | 0.0 | 1.6 | 0.00 | 0.00 | 0.00 | 61 | 1019.4 |
| 20260502121603 | 4 | 358 | 0.0 | 1.6 | 0.00 | 0.00 | 0.00 | 62 | 1019.5 |
| 20260502121104 | 3 | 358 | 0.0 | 1.6 | 0.00 | 0.00 | 0.00 | 64 | 1019.6 |
| 20260502120604 | 3 | 357 | 0.0 | 0.0 | 0.00 | 0.00 | 0.00 | 64 | 1019.5 |
| 20260502120104 | 3 | 357 | 0.0 | 1.6 | 0.00 | 0.00 | 0.00 | 55 | 1019.5 |
| 20260502115604 | 3 | 357 | 0.0 | 1.6 | 0.00 | 0.00 | 0.00 | 67 | 1019.7 |
| 20260502115104 | 2 | 357 | 0.0 | 0.0 | 0.00 | 0.00 | 0.00 | 55 | 1019.6 |
| 20260502114604 | 2 | 357 | 0.0 | 1.6 | 0.00 | 0.00 | 0.00 | 69 | 1019.5 |
| 20260502113604 | 2 | 357 | 0.0 | 1.6 | 0.00 | 0.00 | 0.00 | 69 | 1019.6 |
| 20260502112604 | 1 | 356 | 0.0 | 1.6 | 0.00 | 0.00 | 0.00 | 70 | 1019.7 |
| 20260502112104 | 1 | 356 | 0.0 | 1.6 | 0.00 | 0.00 | 0.00 | 72 | 1019.7 |
| 20260502111603 | 1 | 356 | 0.0 | 1.6 | 0.00 | 0.00 | 0.00 | 72 | 1019.7 |
| 20260502111104 | 1 | 356 | 0.0 | 0.0 | 0.00 | 0.00 | 0.00 | 72 | 1019.9 |
| 20260502110603 | 1 | 356 | 0.0 | 1.6 | 0.00 | 0.00 | 0.00 | 71 | 1019.9 |
| 20260502110104 | 1 | 356 | 0.0 | 1.6 | 0.00 | 0.00 | 0.00 | 72 | 1019.8 |
| 20260502105103 | 1 | 356 | 0.0 | 0.0 | 0.00 | 0.00 | 0.00 | 71 | 1019.6 |
| 20260502104604 | 1 | 356 | 0.0 | 0.0 | 0.00 | 0.00 | 0.00 | 70 | 1019.6 |
| 20260502104104 | 1 | 356 | 0.0 | 0.0 | 0.00 | 0.00 | 0.00 | 70 | 1019.4 |
| 20260502103604 | 1 | 356 | 0.0 | 0.0 | 0.00 | 0.00 | 0.00 | 60 | 1019.8 |
| 20260502103104 | 2 | 356 | 0.0 | 1.6 | 0.00 | 0.00 | 0.00 | 69 | 1019.6 |
| 20260502102605 | 1 | 356 | 0.0 | 1.6 | 0.00 | 0.00 | 0.00 | 55 | 1019.5 |
| 20260502102104 | 1 | 356 | 0.0 | 0.0 | 0.00 | 0.00 | 0.00 | 67 | 1019.8 |
| 20260502101604 | 2 | 357 | 0.0 | 1.6 | 0.00 | 0.00 | 0.00 | 67 | 1019.7 |
| 20260502101104 | 2 | 357 | 0.0 | 0.0 | 0.00 | 0.00 | 0.00 | 66 | 1019.6 |
| 20260502100604 | 2 | 356 | 0.0 | 0.0 | 0.00 | 0.00 | 0.00 | 59 | 1019.6 |
| 20260502100104 | 2 | 356 | 0.0 | 1.6 | 0.00 | 0.00 | 0.00 | 64 | 1019.4 |
| 20260502091103 | 3 | 356 | 0.0 | 1.6 | 0.00 | 0.00 | 0.00 | 55 | 1019.0 |
| 20260502090603 | 4 | 356 | 0.0 | 1.6 | 0.00 | 0.00 | 0.00 | 60 | 1018.9 |
| 20260502090104 | 3 | 356 | 0.0 | 0.0 | 0.00 | 0.00 | 0.00 | 54 | 1019.1 |
| 20260502080103 | 3 | 356 | 0.0 | 0.0 | 0.00 | 0.00 | 0.00 | 60 | 1019.1 |
| 20260502071104 | 4 | 357 | 0.0 | 0.0 | 0.00 | 0.00 | 0.00 | 59 | 1019.4 |
| 20260502070604 | 3 | 357 | 0.0 | 0.0 | 0.00 | 0.00 | 0.00 | 50 | 1019.5 |
| 20260502065605 | 5 | 356 | 0.0 | 0.0 | 0.00 | 0.00 | 0.00 | 45 | 1019.4 |
| 20260502065104 | 5 | 356 | 0.0 | 0.0 | 0.00 | 0.00 | 0.00 | 54 | 1019.4 |
| 20260502064604 | 5 | 356 | 0.0 | 1.6 | 0.00 | 0.00 | 0.00 | 53 | 1019.4 |
| 20260502064104 | 5 | 356 | 0.0 | 1.6 | 0.00 | 0.00 | 0.00 | 53 | 1019.5 |
| 20260502063604 | 5 | 356 | 1.6 | 1.6 | 0.00 | 0.00 | 0.00 | 53 | 1019.5 |
| 20260502063104 | 4 | 356 | 0.0 | 1.6 | 0.00 | 0.00 | 0.00 | 54 | 1019.6 |
| 20260502062104 | 3 | 357 | 0.0 | 0.0 | 0.00 | 0.00 | 0.00 | 52 | 1019.7 |
| 20260502061104 | 3 | 357 | 0.0 | 0.0 | 0.00 | 0.00 | 0.00 | 52 | 1019.6 |
| 20260502060603 | 4 | 357 | 0.0 | 0.0 | 0.00 | 0.00 | 0.00 | 58 | 1019.6 |
| 20260502060104 | 3 | 357 | 0.0 | 0.0 | 0.00 | 0.00 | 0.00 | 49 | 1019.6 |
| 20260502055605 | 3 | 357 | 0.0 | 0.0 | 0.00 | 0.00 | 0.00 | 58 | 1019.8 |
| 20260502055104 | 3 | 357 | 0.0 | 0.0 | 0.00 | 0.00 | 0.00 | 43 | 1019.7 |
| 20260502054604 | 3 | 357 | 0.0 | 0.0 | 0.00 | 0.00 | 0.00 | 57 | 1019.7 |
| 20260502054104 | 4 | 357 | 0.0 | 0.0 | 0.00 | 0.00 | 0.00 | 39 | 1019.8 |
| 20260502053604 | 5 | 357 | 0.0 | 0.0 | 0.00 | 0.00 | 0.00 | 55 | 1019.6 |
| 20260502052604 | 5 | 357 | 0.0 | 0.0 | 0.00 | 0.00 | 0.00 | 55 | 1019.6 |
| 20260502052103 | 5 | 357 | 0.0 | 0.0 | 0.00 | 0.00 | 0.00 | 54 | 1019.6 |
| 20260502051604 | 5 | 357 | 0.0 | 0.0 | 0.00 | 0.00 | 0.00 | 54 | 1019.5 |
| 20260502051103 | 3 | 357 | 0.0 | 0.0 | 0.00 | 0.00 | 0.00 | 56 | 1019.8 |
| 20260502050604 | 4 | 357 | 0.0 | 0.0 | 0.00 | 0.00 | 0.00 | 57 | 1019.8 |
| 20260502045603 | 3 | 357 | 0.0 | 0.0 | 0.00 | 0.00 | 0.00 | 47 | 1019.7 |
| 20260502044603 | 4 | 357 | 0.0 | 0.0 | 0.00 | 0.00 | 0.00 | 44 | 1019.4 |
| 20260502044104 | 3 | 357 | 0.0 | 0.0 | 0.00 | 0.00 | 0.00 | 55 | 1019.7 |
| 20260502043603 | 4 | 357 | 0.0 | 0.0 | 0.00 | 0.00 | 0.00 | 56 | 1019.6 |
| 20260502043103 | 4 | 357 | 0.0 | 0.0 | 0.00 | 0.00 | 0.00 | 57 | 1019.7 |
| 20260502042603 | 3 | 357 | 0.0 | 0.0 | 0.00 | 0.00 | 0.00 | 58 | 1019.7 |
| 20260502042103 | 3 | 357 | 0.0 | 0.0 | 0.00 | 0.00 | 0.00 | 57 | 1019.8 |
| 20260502041604 | 3 | 357 | 0.0 | 0.0 | 0.00 | 0.00 | 0.00 | 58 | 1019.7 |
| 20260502041104 | 4 | 357 | 0.0 | 0.0 | 0.00 | 0.00 | 0.00 | 57 | 1019.6 |
| 20260502040603 | 3 | 357 | 0.0 | 0.0 | 0.00 | 0.00 | 0.00 | 56 | 1019.7 |
| 20260502035604 | 5 | 357 | 0.0 | 0.0 | 0.00 | 0.00 | 0.00 | 53 | 1019.4 |
| 20260502035104 | 5 | 357 | 0.0 | 0.0 | 0.00 | 0.00 | 0.00 | 52 | 1019.6 |
| 20260502034604 | 5 | 357 | 0.0 | 0.0 | 0.00 | 0.00 | 0.00 | 52 | 1019.7 |
| 20260502034104 | 6 | 357 | 0.0 | 0.0 | 0.00 | 0.00 | 0.00 | 50 | 1019.5 |
| 20260502033604 | 5 | 357 | 0.0 | 0.0 | 0.00 | 0.00 | 0.00 | 50 | 1019.5 |
| 20260502033104 | 6 | 357 | 0.0 | 0.0 | 0.00 | 0.00 | 0.00 | 49 | 1019.6 |
| 20260502032104 | 5 | 357 | 0.0 | 0.0 | 0.00 | 0.00 | 0.00 | 48 | 1019.5 |
| 20260502031603 | 5 | 357 | 0.0 | 0.0 | 0.00 | 0.00 | 0.00 | 49 | 1019.3 |
| 20260502031104 | 6 | 357 | 0.0 | 0.0 | 0.00 | 0.00 | 0.00 | 49 | 1019.4 |
| 20260502030603 | 5 | 357 | 0.0 | 0.0 | 0.00 | 0.00 | 0.00 | 42 | 1019.6 |
| 20260502030104 | 6 | 357 | 0.0 | 0.0 | 0.00 | 0.00 | 0.00 | 47 | 1019.4 |
| 20260502025603 | 6 | 357 | 0.0 | 0.0 | 0.00 | 0.00 | 0.00 | 39 | 1019.4 |
| 20260502025104 | 7 | 357 | 0.0 | 0.0 | 0.00 | 0.00 | 0.00 | 45 | 1019.2 |
| 20260502024604 | 6 | 357 | 0.0 | 0.0 | 0.00 | 0.00 | 0.00 | 37 | 1019.4 |
| 20260502023603 | 7 | 357 | 0.0 | 0.0 | 0.00 | 0.00 | 0.00 | 36 | 1019.2 |
| 20260502023103 | 7 | 357 | 0.0 | 0.0 | 0.00 | 0.00 | 0.00 | 41 | 1019.2 |
| 20260502022104 | 7 | 357 | 0.0 | 0.0 | 0.00 | 0.00 | 0.00 | 37 | 1019.1 |
| 20260502021603 | 7 | 357 | 0.0 | 0.0 | 0.00 | 0.00 | 0.00 | 40 | 1019.1 |
| 20260502021103 | 7 | 357 | 0.0 | 0.0 | 0.00 | 0.00 | 0.00 | 38 | 1019.0 |
| 20260502020604 | 8 | 357 | 0.0 | 0.0 | 0.00 | 0.00 | 0.00 | 36 | 1018.9 |
| 20260502020104 | 8 | 357 | 0.0 | 0.0 | 0.00 | 0.00 | 0.00 | 29 | 1018.7 |
| 20260502015103 | 9 | 357 | 0.0 | 1.6 | 0.00 | 0.00 | 0.00 | 35 | 1018.6 |
| 20260502014604 | 10 | 357 | 0.0 | 1.6 | 0.00 | 0.00 | 0.00 | 32 | 1018.4 |
| 20260502014103 | 10 | 357 | 0.0 | 0.0 | 0.00 | 0.00 | 0.00 | 32 | 1018.5 |
| 20260502013603 | 10 | 357 | 0.0 | 1.6 | 0.00 | 0.00 | 0.00 | 32 | 1018.4 |
| 20260502013104 | 10 | 357 | 0.0 | 8.0 | 0.00 | 0.00 | 0.00 | 30 | 1018.3 |
| 20260502012603 | 10 | 328 | 1.6 | 4.8 | 0.00 | 0.00 | 0.00 | 31 | 1018.2 |
| 20260502012103 | 10 | 326 | 1.6 | 4.8 | 0.00 | 0.00 | 0.00 | 31 | 1018.3 |
| 20260502011604 | 10 | 333 | 1.6 | 4.8 | 0.00 | 0.00 | 0.00 | 30 | 1018.3 |
| 20260502010603 | 10 | 323 | 1.6 | 8.0 | 0.00 | 0.00 | 0.00 | 30 | 1018.3 |
| 20260502010104 | 11 | 335 | 0.0 | 9.7 | 0.00 | 0.00 | 0.00 | 29 | 1018.2 |
| 20260502005604 | 11 | 329 | 3.2 | 9.7 | 0.00 | 0.00 | 0.00 | 30 | 1018.2 |
| 20260502005104 | 11 | 320 | 4.8 | 9.7 | 0.00 | 0.00 | 0.00 | 28 | 1018.0 |
| 20260502004604 | 11 | 353 | 1.6 | 8.0 | 0.00 | 0.00 | 0.00 | 27 | 1017.9 |
| 20260502004105 | 11 | 341 | 1.6 | 8.0 | 0.00 | 0.00 | 0.00 | 28 | 1018.1 |
| 20260502003104 | 11 | 345 | 4.8 | 14.5 | 0.00 | 0.00 | 0.00 | 28 | 1018.1 |
| 20260502002604 | 11 | 336 | 3.2 | 11.3 | 0.00 | 0.00 | 0.00 | 28 | 1018.0 |
| 20260502002104 | 11 | 344 | 6.4 | 11.3 | 0.00 | 0.00 | 0.00 | 28 | 1018.0 |
| 20260502001603 | 11 | 337 | 4.8 | 11.3 | 0.00 | 0.00 | 0.00 | 28 | 1018.0 |
| 20260502001104 | 11 | 355 | 6.4 | 14.5 | 0.00 | 0.00 | 0.00 | 27 | 1018.1 |
| 20260502000104 | 11 | 349 | 3.2 | 8.0 | 0.00 | 0.00 | 0.00 | 27 | 1018.2 |
| 20260501235603 | 11 | 357 | 3.2 | 19.3 | 0.00 | 0.00 | 0.00 | 28 | 1018.2 |
| 20260501235103 | 11 | 281 | 9.7 | 19.3 | 0.00 | 0.00 | 0.00 | 29 | 1018.0 |
| 20260501234603 | 11 | 359 | 8.0 | 11.3 | 0.00 | 0.00 | 0.00 | 28 | 1018.1 |
| 20260501234104 | 11 | 8 | 3.2 | 9.7 | 0.00 | 0.00 | 0.00 | 28 | 1018.0 |